Regional Weather Roundup
Issued by NWS

Home | Current Version | Previous Version | Text Only | Print | Product List | Glossary On
Versions: 1 2 3 4 5 6 7 8 9 10 11 12 13 14 15 16 17 18 19 20 21 22 23 24 25 26 27 28 29 30 31 32 33 34 35 36 37 38 39 40 41 42 43 44 45 46 47 48 49 50
000
ASUS44 KFWD 210603
RWRTX
NORTH TEXAS HOURLY WEATHER ROUNDUP
NATIONAL WEATHER SERVICE FORT WORTH TX
1200 AM CST SUN JAN 21 2018

NOTE: "FAIR" INDICATES FEW OR NO CLOUDS BELOW 12,000 FEET WITH NO
SIGNIFICANT WEATHER AND/OR OBSTRUCTIONS TO VISIBILITY.

TXZ118-119-210700-
DALLAS/FORT WORTH METROPLEX

CITY           SKY/WX    TMP DP  RH WIND       PRES   REMARKS
DFW AIRPORT    MOCLDY    65  58  78 S20       29.90F
6HR MIN TEMP:  61; 6HR MAX TEMP:  68;

DALLAS LOVE    MOCLDY    63  58  83 S13       29.93S
6HR MIN TEMP:  61; 6HR MAX TEMP:  68;

FTW MEACHAM    CLOUDY    63  58  83 S20G35    29.91S
6HR MIN TEMP:  60; 6HR MAX TEMP:  69;

DAL-EXECUTIVE  CLOUDY    63  58  83 S13       29.93S
6HR MIN TEMP:  61; 6HR MAX TEMP:  67;

FTW-ALLIANCE   CLOUDY    61  56  83 S17G29    29.90F
6HR MIN TEMP:  58; 6HR MAX TEMP:  68;

FTW-NAS-JRB    CLOUDY    61  55  81 S18G33    29.91F
6HR MIN TEMP:  59; 6HR MAX TEMP:  70;

FTW-SPINKS     CLOUDY    63  57  81 S14G24    29.93F
6HR MIN TEMP:  59; 6HR MAX TEMP:  67;

ARLINGTON      CLOUDY    62  58  86 S14G24    29.92F
6HR MIN TEMP:  58; 6HR MAX TEMP:  66;

GRAND PRAIRIE  MOCLDY    63  56  79 S14       29.94F
6HR MIN TEMP:  59; 6HR MAX TEMP:  67;

ADDISON        CLOUDY    63  57  82 S16G22    29.94S
6HR MIN TEMP:  60; 6HR MAX TEMP:  65;

MESQUITE       CLOUDY    60  56  85 S8        29.96R
6HR MIN TEMP:  60; 6HR MAX TEMP:  64;

LANCASTER      CLOUDY    61  57  86 S9        29.96S
6HR MIN TEMP:  60; 6HR MAX TEMP:  65;

$$

TXZ091>094-102>105-117-120-121-131>134-210700-
NORTH CENTRAL TEXAS

CITY           SKY/WX    TMP DP  RH WIND       PRES   REMARKS
SHRMAN/DENISON CLOUDY    58  55  88 S21G30    29.91S
6HR MIN TEMP:  57; 6HR MAX TEMP:  63;

GAINESVILLE    CLOUDY    57  54  89 S18G24    29.91S
6HR MIN TEMP:  56; 6HR MAX TEMP:  63;

BOWIE          MOCLDY    55  53  94 S10G21    29.87S
6HR MIN TEMP:  55; 6HR MAX TEMP:  69;

BRIDGEPORT     FAIR      57  52  85 S14G21    29.90S
6HR MIN TEMP:  56; 6HR MAX TEMP:  71;

DECATUR        CLOUDY    56  54  91 S17G26    29.88S
6HR MIN TEMP:  56; 6HR MAX TEMP:  67;

DENTON         CLOUDY    59  56  89 S13       29.91S
6HR MIN TEMP:  58; 6HR MAX TEMP:  66;

MCKINNEY       MOCLDY    61  58  90 S17       29.92R
6HR MIN TEMP:  59; 6HR MAX TEMP:  63;

BONHAM         CLOUDY    59  55  87 S15G22    29.93S
6HR MIN TEMP:  58; 6HR MAX TEMP:  60;

ROCKWALL       CLOUDY    60  58  90 S8        29.95R
6HR MIN TEMP:  60; 6HR MAX TEMP:  63;

TERRELL        CLOUDY    60  57  89 S10       29.96S
6HR MIN TEMP:  59; 6HR MAX TEMP:  64;

WAXAHACHIE     CLOUDY    61  59  92 S13G20    29.96S
6HR MIN TEMP:  58; 6HR MAX TEMP:  64;

CLEBURNE       CLOUDY    61  59  94 S12G22    29.95S
GRANBURY       CLOUDY    62  56  81 S16G23    29.92S
6HR MIN TEMP:  59; 6HR MAX TEMP:  73;

$$

TXZ083>090-098>101-113>116-127>130-139>142-154-155-210700-
WESTERN NORTH TEXAS

CITY           SKY/WX    TMP DP  RH WIND       PRES   REMARKS
WICHITA FALLS  FAIR      58  48  69 S15       29.81R
6HR MIN TEMP:  52; 6HR MAX TEMP:  65;

WF-KICKAPOO    FAIR      56  49  75 S14       29.85R
6HR MIN TEMP:  50; 6HR MAX TEMP:  64;

VERNON         FAIR      50  27  40 S8        29.80R
6HR MIN TEMP:  50; 6HR MAX TEMP:  65;

ABILENE        FAIR      56  41  57 S16G23    29.86S
6HR MIN TEMP:  55; 6HR MAX TEMP:  68;

ABILENE-DYESS  FAIR      56  39  53 S14       29.86R
6HR MIN TEMP:  53; 6HR MAX TEMP:  68;

GRAHAM           N/A     57  50  77 SE8G16    29.86R
6HR MIN TEMP:  57; 6HR MAX TEMP:  72;

BRECKENRIDGE   FAIR      58  48  69 S12G17    29.87R
6HR MIN TEMP:  58; 6HR MAX TEMP:  73;

CISCO          FAIR      54  50  87 S16       29.88F
EASTLAND       FAIR      54  49  85 S14       29.89F
6HR MIN TEMP:  54; 6HR MAX TEMP:  70;

RANGER         FAIR      52  50  93 S9G18     29.90S
MINERAL WELLS  FAIR      56  52  86 S17G25    29.88S
6HR MIN TEMP:  55; 6HR MAX TEMP:  70;

STEPHENVILLE   CLOUDY    57  54  87 S15G23    29.94F
6HR MIN TEMP:  55; 6HR MAX TEMP:  72;

COMANCHE       CLOUDY    56  56  97 S23G30    29.91F
6HR MIN TEMP:  55; 6HR MAX TEMP:  70;

COLEMAN          N/A     53  46  77 S14       29.90
$$

TXZ143>147-156>162-174-175-210700-
CENTRAL TEXAS

CITY           SKY/WX    TMP DP  RH WIND       PRES   REMARKS
WACO           CLOUDY    59  56  89 S14       29.96F
6HR MIN TEMP:  58; 6HR MAX TEMP:  62;

WACO-MCGREGOR  MOCLDY    60  58  92 S15       29.96F
6HR MIN TEMP:  60; 6HR MAX TEMP:  62;

CORSICANA      MOCLDY    60  59  96 S12       29.98R
6HR MIN TEMP:  55; 6HR MAX TEMP:  64;

MEXIA          CLOUDY    60  59  97 S15G21    29.98R
6HR MIN TEMP:  55; 6HR MAX TEMP:  63;

HEARNE         CLOUDY    60  60 100 SE6       30.02R
6HR MIN TEMP:  58; 6HR MAX TEMP:  63;

CAMERON        CLOUDY    61  59  94 S9        29.99F
6HR MIN TEMP:  59; 6HR MAX TEMP:  64;

TEMPLE         CLOUDY    58  57  97 S12       29.98F
6HR MIN TEMP:  58; 6HR MAX TEMP:  62;

KILLEEN        MOCLDY    56  55  97 S8        29.96S
6HR MIN TEMP:  56; 6HR MAX TEMP:  62;

KILLEEN-SKYLRK CLOUDY    59  57  93 S13       29.97F
6HR MIN TEMP:  59; 6HR MAX TEMP:  62;

FORT HOOD      FAIR      57  56  99 S8        29.93S
6HR MIN TEMP:  56; 6HR MAX TEMP:  61;

GATESVILLE     FAIR      59  59 100 S8G14     29.97F
HAMILTON       FAIR      55  55 100 S14       29.94F
LAMPASAS       FAIR      58  55  91 S13G18    29.94F
6HR MIN TEMP:  55; 6HR MAX TEMP:  65;

$$

TXZ095>097-106>112-122>126-135>138-148>153-164>167-210700-
EAST TEXAS

CITY           SKY/WX    TMP DP  RH WIND       PRES   REMARKS
PARIS          CLOUDY    61  59  93 S15       29.96S
6HR MIN TEMP:  60; 6HR MAX TEMP:  63;

SULPHUR SPRNGS CLOUDY    64  61  91 S10G16    29.98S
6HR MIN TEMP:  62; 6HR MAX TEMP:  64;

MOUNT PLEASANT MOCLDY    63  60  91 SE10      30.00R
6HR MIN TEMP:  60; 6HR MAX TEMP:  63;

GILMER         CLOUDY    63  60  91 SE6       29.99S
6HR MIN TEMP:  60; 6HR MAX TEMP:  63;

MINEOLA        CLOUDY    64  61  88 S10       29.97S
TYLER          CLOUDY    65  62  90 S15       29.98R
6HR MIN TEMP:  61; 6HR MAX TEMP:  65;

LONGVIEW       CLOUDY    65  63  93 S12       30.00R
6HR MIN TEMP:  62; 6HR MAX TEMP:  65;

MARSHALL       CLOUDY    63  60  90 S10       30.03F
6HR MIN TEMP:  63; 6HR MAX TEMP:  63;

ATHENS         CLOUDY    61  59  94 S13G21    29.97S
PALESTINE      CLOUDY    65  62  90 S10G21    30.01S
JACKSONVILLE   CLOUDY    64  62  94 S9        30.03S
CENTER         CLOUDY    63  59  89 S13G20    30.05F
6HR MIN TEMP:  61; 6HR MAX TEMP:  63;

NACOGDOCHES    CLOUDY    64  62  93 S14       30.04S
6HR MIN TEMP:  62; 6HR MAX TEMP:  65;

LUFKIN         CLOUDY    65  62  90 S9        30.04R
6HR MIN TEMP:  62; 6HR MAX TEMP:  65; 6HR PCP: TRACE;

$$

SUPPLEMENTAL OBSERVATIONS (NWS FORT WORTH AREA)

CITY           SKY/WX    TMP DP  RH WIND       PRES   REMARKS
$$

SUPPLEMENTAL OBSERVATIONS (NWS NORMAN AREA)

CITY           SKY/WX    TMP DP  RH WIND       PRES   REMARKS
$$

SUPPLEMENTAL OBSERVATIONS (NWS SAN ANGELO AREA)

CITY           SKY/WX    TMP DP  RH WIND       PRES   REMARKS
$$

SUPPLEMENTAL OBSERVATIONS (NWS SHREVEPORT AREA)

CITY           SKY/WX    TMP DP  RH WIND       PRES   REMA



USA.gov is the U.S. government's official web portal to all federal, state and local government web resources and services.